Date String (YYYY-MM-DD hh:mm:ss) UTC,Instrument flags,Ambient pressure (hPa),Sample flow (lpm),Bypass flow (lpm),Sample temperature (°C),Ambient temperature (°C),ASC tube jacket temperature (°C),LED temperature (°C),Box temperature (°C),Sample RH (%),Span deviation,Mass concentration (μg/m³),Mass concentration (μg/m³),Mass concentration (μg/m³)
DateTimeUTC,F1_M11,P_M11,Q1_M11,Q2_M11,T1_M11,T2_M11,T3_M11,T4_M11,T5_M11,U1_M11,ZSPAN_M11,X0_M11,X2_M11,X1_M11
2023-05-17 17:00:00,,0830.6,5.01,0.00,29.6,26.2,00.0,37.7,31.0,22.8,0000.0,0011.82,0004.84,0003.57
2023-05-17 17:01:00,,0830.7,5.01,0.00,29.5,26.4,00.0,37.7,30.9,23.6,0000.0,0011.83,0004.91,0003.60
2023-05-17 17:02:00,,0830.5,4.99,0.00,29.5,26.6,00.0,37.7,30.9,25.2,0000.0,0011.63,0004.98,0003.63
2023-05-17 17:03:00,,0830.4,4.99,0.00,29.4,26.8,00.0,37.7,31.0,24.8,0000.0,0011.38,0005.02,0003.66
2023-05-17 17:04:00,,0830.4,4.99,0.00,29.4,27.1,00.0,37.8,31.0,24.5,0000.0,0011.52,0005.01,0003.69
2023-05-17 17:05:00,,0830.5,5.01,0.00,29.4,27.3,00.0,37.8,31.0,23.8,0000.0,0012.58,0005.05,0003.71
2023-05-17 17:06:00,,0830.5,5.01,0.00,29.4,27.5,00.0,37.8,31.0,22.7,0000.0,0012.33,0005.01,0003.73
2023-05-17 17:07:00,,0830.6,5.00,0.00,29.4,27.6,00.0,37.8,31.0,23.3,0000.0,0011.99,0005.01,0003.74
2023-05-17 17:08:00,,0830.5,4.99,0.00,29.5,27.7,00.0,37.8,31.1,23.9,0000.0,0012.00,0005.02,0003.76
2023-05-17 17:09:00,,0830.6,5.00,0.00,29.5,27.8,00.0,37.8,31.1,24.1,0000.0,0011.92,0005.01,0003.79
2023-05-17 17:10:00,,0830.4,5.00,0.00,29.5,27.9,00.0,37.8,31.1,24.4,0000.0,0011.88,0005.01,0003.81
2023-05-17 17:11:00,,0830.4,5.00,0.00,29.5,28.0,00.0,37.8,31.1,23.8,0000.0,0011.65,0005.00,0003.84
2023-05-17 17:12:00,,0830.6,4.99,0.00,29.5,28.0,00.0,37.8,31.2,21.6,0000.0,0011.28,0004.99,0003.85
2023-05-17 17:13:00,,0830.7,5.01,0.00,29.5,28.1,00.0,37.8,31.2,22.4,0000.0,0011.18,0004.93,0003.84
2023-05-17 17:14:00,,0830.5,5.00,0.00,29.6,28.0,00.0,37.8,31.2,23.8,0000.0,0011.31,0004.92,0003.84
2023-05-17 17:15:00,,0830.4,4.98,0.00,29.5,26.6,00.0,37.8,31.0,24.1,0000.0,0011.31,0004.90,0003.84
2023-05-17 17:16:00,,0830.4,5.01,0.00,29.5,25.9,00.0,37.7,30.9,24.6,0000.0,0010.50,0004.92,0003.84
2023-05-17 17:17:00,,0830.4,5.01,0.00,29.4,26.0,00.0,37.7,30.8,24.6,0000.0,0010.17,0004.96,0003.86
2023-05-17 17:18:00,,0830.4,5.00,0.00,29.4,26.3,00.0,37.7,30.8,24.0,0000.0,0010.01,0004.93,0003.88
2023-05-17 17:19:00,,0830.4,4.99,0.00,29.3,26.6,00.0,37.7,30.8,21.7,0000.0,0009.86,0004.89,0003.88
2023-05-17 17:20:00,,0830.4,5.00,0.00,29.3,26.8,00.0,37.7,30.9,22.0,0000.0,0009.86,0004.88,0003.87
2023-05-17 17:21:00,,0830.4,5.01,0.00,29.3,27.1,00.0,37.7,30.9,21.6,0000.0,0009.72,0004.83,0003.86
2023-05-17 17:22:00,,0830.4,4.99,0.00,29.3,27.3,00.0,37.7,30.9,22.5,0000.0,0009.66,0004.80,0003.84
2023-05-17 17:23:00,,0830.4,4.99,0.00,29.3,27.5,00.0,37.7,31.0,20.2,0000.0,0009.49,0004.79,0003.83
2023-05-17 17:24:00,,0830.3,5.01,0.00,29.4,27.6,00.0,37.7,31.0,20.0,0000.0,0009.53,0004.82,0003.82
2023-05-17 17:25:00,,0830.3,5.01,0.00,29.4,27.7,00.0,37.7,31.0,21.5,0000.0,0009.32,0004.80,0003.79
2023-05-17 17:26:00,,0830.3,5.01,0.00,29.4,27.8,00.0,37.7,31.0,22.1,0000.0,0009.15,0004.79,0003.77
2023-05-17 17:27:00,,0830.3,5.00,0.00,29.4,27.9,00.0,37.7,31.1,21.1,0000.0,0009.32,0004.76,0003.76
2023-05-17 17:28:00,,0830.3,5.00,0.00,29.4,28.0,00.0,37.7,31.1,23.0,0000.0,0009.68,0004.73,0003.74
2023-05-17 17:29:00,,0830.3,4.99,0.00,29.5,28.1,00.0,37.7,31.1,22.5,0000.0,0009.65,0004.72,0003.72
2023-05-17 17:30:00,,0830.3,4.99,0.00,29.5,27.9,00.0,37.7,31.1,22.9,0000.0,0010.28,0004.72,0003.72
2023-05-17 17:31:00,,0830.2,5.01,0.00,29.5,26.6,00.0,37.7,31.0,22.0,0000.0,0010.36,0004.70,0003.70
2023-05-17 17:32:00,,0830.2,5.01,0.00,29.4,25.9,00.0,37.6,30.8,22.1,0000.0,0010.53,0004.74,0003.69
2023-05-17 17:33:00,,0830.2,5.01,0.00,29.4,26.0,00.0,37.6,30.7,20.9,0000.0,0010.69,0004.73,0003.68
2023-05-17 17:34:00,,0830.2,5.00,0.00,29.3,26.2,00.0,37.6,30.7,20.6,0000.0,0010.64,0004.68,0003.67
2023-05-17 17:35:00,,0830.2,4.99,0.00,29.3,26.5,00.0,37.6,30.8,21.1,0000.0,0010.58,0004.63,0003.66
2023-05-17 17:36:00,,0830.2,5.00,0.00,29.3,26.8,00.0,37.6,30.8,22.0,0000.0,0010.73,0004.65,0003.64
2023-05-17 17:37:00,,0830.3,5.00,0.00,29.3,27.1,00.0,37.6,30.9,22.1,0000.0,0010.62,0004.63,0003.63
2023-05-17 17:38:00,,0830.3,5.00,0.00,29.3,27.3,00.0,37.6,30.9,23.2,0000.0,0010.52,0004.61,0003.62
2023-05-17 17:39:00,,0830.3,5.00,0.00,29.3,27.5,00.0,37.6,30.9,23.3,0000.0,0010.37,0004.64,0003.62
2023-05-17 17:40:00,,0830.2,5.00,0.00,29.3,27.6,00.0,37.6,31.0,23.2,0000.0,0010.52,0004.64,0003.62
2023-05-17 17:41:00,,0830.3,5.00,0.00,29.3,27.7,00.0,37.6,31.0,22.5,0000.0,0009.89,0004.57,0003.60
2023-05-17 17:42:00,,0830.3,4.99,0.00,29.4,27.9,00.0,37.6,31.0,21.9,0000.0,0009.85,0004.58,0003.60
2023-05-17 17:43:00,,0830.3,5.00,0.00,29.4,28.0,00.0,37.7,31.0,21.3,0000.0,0009.73,0004.56,0003.58
2023-05-17 17:44:00,,0830.2,5.00,0.00,29.4,28.0,00.0,37.7,31.1,22.1,0000.0,0009.56,0004.56,0003.59
2023-05-17 17:45:00,,0830.1,4.99,0.00,29.4,27.2,00.0,37.6,31.0,21.5,0000.0,0009.55,0004.56,0003.59
2023-05-17 17:46:00,,0830.1,5.00,0.00,29.4,25.5,00.0,37.6,30.7,21.9,0000.0,0009.83,0004.57,0003.59
2023-05-17 17:47:00,,0830.1,5.02,0.00,29.3,25.0,00.0,37.5,30.6,22.0,0000.0,0010.19,0004.54,0003.60
2023-05-17 17:48:00,,0830.1,5.00,0.00,29.2,25.2,00.0,37.4,30.5,21.2,0000.0,0010.29,0004.54,0003.60
2023-05-17 17:49:00,,0830.1,4.99,0.00,29.1,25.5,00.0,37.4,30.5,20.7,0000.0,0010.03,0004.54,0003.60
2023-05-17 17:50:00,,0830.1,5.00,0.00,29.1,25.9,00.0,37.4,30.5,20.6,0000.0,0009.75,0004.50,0003.58
2023-05-17 17:51:00,,0830.1,5.01,0.00,29.1,26.2,00.0,37.4,30.6,20.2,0000.0,0009.56,0004.50,0003.55
2023-05-17 17:52:00,,0830.1,5.00,0.00,29.1,26.5,00.0,37.4,30.6,19.6,0000.0,0009.69,0004.49,0003.53
2023-05-17 17:53:00,,0830.1,4.99,0.00,29.1,26.8,00.0,37.4,30.7,19.4,0000.0,0009.97,0004.47,0003.52
2023-05-17 17:54:00,,0830.1,5.00,0.00,29.1,27.0,00.0,37.4,30.7,19.4,0000.0,0010.03,0004.48,0003.50
2023-05-17 17:55:00,,0830.1,5.00,0.00,29.1,27.2,00.0,37.4,30.7,20.1,0000.0,0010.30,0004.50,0003.49
2023-05-17 17:56:00,,0830.1,5.00,0.00,29.1,27.4,00.0,37.4,30.8,19.1,0000.0,0010.43,0004.51,0003.48
2023-05-17 17:57:00,,0830.1,5.01,0.00,29.1,27.5,00.0,37.4,30.8,19.6,0000.0,0010.48,0004.49,0003.46
2023-05-17 17:58:00,,0830.1,4.99,0.00,29.1,27.6,00.0,37.4,30.8,19.2,0000.0,0010.59,0004.47,0003.43
2023-05-17 17:59:00,,0830.1,4.99,0.00,29.2,27.7,00.0,37.5,30.9,18.1,0000.0,0010.43,0004.42,0003.39
